Location: Unspecified
(0.0000°N, 0.0000°E)
Time: 03:48:20
(UTC+00:00)

Vanguard 1 - Pass Details

Date: 13 December 2023
Orbit: 653 x 3826 km, 34.3° (Epoch: 22 February)

Event Time Altitude Azimuth Distance (km) Brightness Sun altitude
Rises 22:01:24 0° 315° (NW) 7,293 14.5 -54.1°
Reaches altitude 10° 22:06:09 10° 319° (NW) 6,536 14.2 -55.0°
Enters shadow 22:12:26 25° 327° (NNW) 5,604 13.7 -56.1°
Maximum altitude 22:28:49 59° 36° (NE) 4,122 - -58.9°
Drops below altitude 10° 22:48:19 10° 111° (ESE) 5,806 - -61.8°
Exits shadow 22:49:53 - 112° (ESE) 6,078 14.0 -62.0°
Sets 22:52:08 0° 114° (ESE) 6,486 14.2 -62.3°
